Skip Page Navigation
NASA JPL Caltech
NASA Logo - Jet Propulsion Laboratory + View the NASA Portal
+ Center for Near-Earth Object Studies
JPL Home Earth Solar System Stars & Galaxies Technology
JPL Solar System Dynamics
BODIES ORBITS EPHEMERIDES TOOLS PHYSICAL DATA DISCOVERY FAQ SITE MAP
IMPORTANT: The SSD Announcement email list is now available. Major changes are coming in the near future, including possible hostname and/or URL changes. To be notified of such changes, subscribe to this email list.

Please visit this page for more details.


JPL Small-Body Database Browser
Search: [ help ]  
5077 Favaloro (1974 MG)
Classification: Main-belt Asteroid          SPK-ID: 2005077
Ephemeris | Orbit Diagram | Orbital Elements | Mission Design | Physical Parameters | Discovery Circumstances | Close-Approach Data ]

[ show orbit diagram ]
Orbital Elements at Epoch 2458600.5 (2019-Apr-27.0) TDB
Reference: JPL 26 (heliocentric ecliptic J2000)
 Element Value Uncertainty (1-sigma)   Units 
e .1835521632168239 3.5619e-08  
a 2.23039797636662 7.6994e-09 au
q 1.821003602970101 8.104e-08 au
i 5.492099829248446 3.7346e-06 deg
node 324.078796994963 3.7706e-05 deg
peri 337.8516694955815 3.8964e-05 deg
M 151.0894014390668 9.6334e-06 deg
tp 2458089.873358065887
(2017-Dec-02.37335807)
3.183e-05 TDB
period 1216.667677185922
3.33
6.3e-06
1.725e-08
d
yr
n .2958901652032524 1.5321e-09 deg/d
Q 2.63979234976314 9.1127e-09 au
  Orbit Determination Parameters
   # obs. used (total)      1661  
   data-arc span      16352 days (44.77 yr)  
   first obs. used      1974-06-17  
   last obs. used      2019-03-25  
   planetary ephem.      DE431  
   SB-pert. ephem.      SB431-N16  
   condition code      0  
   norm. resid. RMS      .5006  
   source      ORB  
   producer      Otto Matic  
   solution date      2019-Jul-12 18:36:36  

Additional Information
 Earth MOID = .80635 au 
 Jupiter MOID = 2.59119 au 
 T_jup = 3.614 
[ show covariance matrix ]

Ephemeris | Orbit Diagram | Orbital Elements | Mission Design | Physical Parameters | Discovery Circumstances | Close-Approach Data ]

Physical Parameter Table
Parameter Symbol Value Units Sigma Reference Notes
absolute magnitude H 13.8   n/a MPO347564  
diameter diameter 4.508 km 0.138 urn:nasa:pds:neowise_diameters_albedos::2.0[mainbelt] (http://adsabs.harvard.edu/abs/2011ApJ...741...68M)  
geometric albedo albedo 0.346   0.028 urn:nasa:pds:neowise_diameters_albedos::2.0[mainbelt] (http://adsabs.harvard.edu/abs/2011ApJ...741...68M)  

5077 Favaloro           Discovered 1974 June 17 by the Felix Aguilar Observatory team at the El Leoncito Station.
Rene Favaloro (1923-2000) was a well-known Argentinian cardiologist who first developed the coronary-artery bypass surgery technique. Thanks to this approach a number of people have been able to recover from serious heart conditions all over the world.
NOTE: some special characters may not display properly (any characters within {} are an attempt to place the proper accent above a character)
Reference: 20061109/MPCPages.arcLast Updated: 2006-11-13

[ show close-approach data ]
Alternate Designations
 1974 MG = 1981 SE3 = 1981 UH13 
Ephemeris | Orbit Diagram | Orbital Elements | Mission Design | Physical Parameters | Discovery Circumstances | Close-Approach Data ]
ABOUT SSD CREDITS/AWARDS PRIVACY/COPYRIGHT GLOSSARY LINKS
FirstGov
(server date/time)  
NASA Home Page
Site Manager:   Ryan S. Park
Webmaster  Alan B. Chamberlin